User: anonymous   Login
Location: ???????
(55.7027°N, 37.3832°E)
Time: 07:45:23
(UTC+00:00)
Language:

Cosmos 1892 Rocket - Orbit

View from above orbital plane
View from above orbital plane
View from above satellite
View from above satellite

Ground track
Ground track

The orbit is defined by the following mean orbital elements,

1 18422U          26161.60336509 +.00000000 +00000-0 +41129-4 0 00009
2 18422  82.5105 339.7858 0020068  65.7376 294.5933 14.85408177    03
Epoch (UTC): 10 June 2026 14:28:50
Eccentricity: 0.0020068
inclination: 82.5105°
perigee height: 598 km
apogee height: 626 km
right ascension of ascending node: 339.7858°
argument of perigee: 65.7376°
revolutions per day: 14.85408177
mean anomaly at epoch: 294.5933°

The dashed part of the orbit path shows where the satellite is in the earth's shadow,  

DLR